942  
SXUS52 KJAX 190513  
OSOJAX  
OTHER SURFACE OBSERVATIONS  
NATIONAL WEATHER SERVICE JACKSONVILLE FL  
100 AM EDT TUE MAR 19 2019  
 
FLZ020>025-030>033-035>038-040-190600-   
..FLORIDA
 
 
 
CITY SKY/WX TMP DP RH WIND PRES REMARKS  
CECIL FIELD FAIR N/A N/A N/A CALM 30.19F  
HERLONG FIELD NOT AVBL  
FERNANDINA BCH NOT AVBL  
LAKE CITY FAIR 54 39 58 N3 30.21R  
JUNIPER SPGS NOT AVBL  
BUNNELL NOT AVBL  
KEYSTONE HGTS CLEAR 52 46 82 CALM 30.19R  

 
 
GAZ132>136-149>154-162>166-190600-   
..GEORGIA
 
 
 
CITY SKY/WX TMP DP RH WIND PRES REMARKS  
JESUP FAIR 57 28 33 N7 30.21F  
HOMERVILLE NOT AVBL  
SWAINSBORO FAIR 52 27 37 N5 30.26S  
CORDELE NOT AVBL  
EASTMAN FAIR 50 22 33 CALM 30.28S  

 
 
PLEASE NOTE: THESE OBSERVATIONS ARE NOT QUALITY CONTROLLED AND MAY  
NOT BE AVAILABLE AT ALL TIMES.  

 
 
 
CLICK HERE TO GO TO PREVIOUS BULLETINS.

The Nexlab FL Page
The Nexlab GA Page Main Text Page